Weather History for Natchez, MS

Change the Weather History Date:

Monday, March 12, 2012

  Actual Average Record
Temperature  
Mean Temperature 70 °F -  
Max Temperature 75 °F 71 °F 87 °F (1973)
Min Temperature 64 °F 50 °F 26 °F (1998)
Cooling Degree Days 4    
Growing Degree Days 20 (Base 50)    
Moisture  
Dew Point 60 °F    
Average Humidity 77    
Maximum Humidity 88    
Minimum Humidity 65    
Precipitation  
Precipitation 0.00 in - - ()
Sea Level Pressure  
Sea Level Pressure 30.11 in    
Wind  
Wind Speed 10 mph (South)    
Max Wind Speed 18 mph    
Max Gust Speed 24 mph    
Visibility 10 miles    
Events      
Averages and records for this station are not official NWS values.
T = Trace of Precipitation, MM = Missing Value Source: NWS Daily Summary

Daily Weather History Graph

Daily Weather History Graph

Search for Another Location

Airport:

Trip Planner

Search our weather history database for the weather conditions in past years. The results will help you decide how hot, cold, wet, or windy it might be!

Date:

Astronomy

Mar. 12, 2012 Rise Set
Actual Time 7:18 AM CDT 7:11 PM CDT
Civil Twilight 6:54 AM CDT 7:35 PM CDT
Nautical Twilight 6:25 AM CDT 8:04 PM CDT
Astronomical Twilight 5:57 AM CDT 8:32 PM CDT
Moon No Moon Rise 10:01 AM CDT (3/12)
Length of Visible Light 12h 41m
Length of Day
11h 53m
Waning Gibbous, 76% of the Moon is Illuminated
Mar 12
Waning Gibbous
Mar 14
Last Quarter
Mar 22
New
Mar 30
First Quarter
Apr 6
Full

Hourly Weather History & Observations

Time (CDT) Temp. Dew Point Humidity Pressure Visibility Wind Dir Wind Speed Gust Speed Precip Events Conditions
12:15 AM 68.0 °F 62.6 °F 83% 30.09 in 10.0 mi SSE 9.2 mph - N/A   Overcast
12:35 AM 68.0 °F 62.6 °F 83% 30.08 in 10.0 mi SSE 9.2 mph - N/A   Overcast
12:55 AM 66.2 °F 60.8 °F 83% 30.07 in 10.0 mi SSE 4.6 mph - N/A   Mostly Cloudy
1:15 AM 66.2 °F 60.8 °F 83% 30.07 in 10.0 mi South 5.8 mph - N/A   Mostly Cloudy
1:35 AM 66.2 °F 60.8 °F 83% 30.08 in 5.0 mi SSE 5.8 mph - N/A   Scattered Clouds
1:55 AM 66.2 °F 60.8 °F 83% 30.06 in 10.0 mi SSE 4.6 mph - N/A   Clear
2:15 AM 64.4 °F 60.8 °F 88% 30.05 in 10.0 mi South 5.8 mph - N/A   Clear
2:35 AM 66.2 °F 60.8 °F 83% 30.05 in 10.0 mi South 6.9 mph - N/A   Partly Cloudy
2:55 AM 66.2 °F 59.0 °F 78% 30.06 in 10.0 mi South 4.6 mph - N/A   Partly Cloudy
3:15 AM 66.2 °F 59.0 °F 78% 30.06 in 10.0 mi South 5.8 mph - N/A   Mostly Cloudy
3:55 AM 66.2 °F 59.0 °F 78% 30.06 in 10.0 mi South 8.1 mph - N/A   Mostly Cloudy
4:55 AM 66.2 °F 59.0 °F 78% 30.06 in 10.0 mi South 11.5 mph 21.9 mph N/A   Clear
5:15 AM 66.2 °F 59.0 °F 78% 30.07 in 10.0 mi South 15.0 mph 20.7 mph N/A   Partly Cloudy
5:35 AM 66.2 °F 57.2 °F 73% 30.07 in 10.0 mi South 12.7 mph - N/A   Clear
6:15 AM 64.4 °F 57.2 °F 77% 30.09 in 10.0 mi South 9.2 mph - N/A   Mostly Cloudy
6:35 AM 64.4 °F 57.2 °F 77% 30.09 in 10.0 mi South 8.1 mph - N/A   Overcast
6:55 AM 64.4 °F 57.2 °F 77% 30.09 in 10.0 mi South 9.2 mph - N/A   Mostly Cloudy
7:15 AM 64.4 °F 57.2 °F 77% 30.09 in 10.0 mi South 9.2 mph - N/A   Mostly Cloudy
7:35 AM 64.4 °F 57.2 °F 77% 30.10 in 10.0 mi South 9.2 mph - N/A   Mostly Cloudy
8:15 AM 64.4 °F 57.2 °F 77% 30.10 in 10.0 mi South 9.2 mph - N/A   Mostly Cloudy
8:35 AM 64.4 °F 57.2 °F 77% 30.12 in 10.0 mi South 11.5 mph - N/A   Mostly Cloudy
8:55 AM 66.2 °F 59.0 °F 78% 30.12 in 10.0 mi South 12.7 mph 17.3 mph N/A   Scattered Clouds
9:15 AM 66.2 °F 57.2 °F 73% 30.13 in 10.0 mi South 12.7 mph - N/A   Partly Cloudy
9:35 AM 66.2 °F 59.0 °F 78% 30.13 in 10.0 mi South 11.5 mph - N/A   Mostly Cloudy
9:55 AM 68.0 °F 60.8 °F 78% 30.14 in 10.0 mi South 12.7 mph - N/A   Overcast
10:15 AM 66.2 °F 60.8 °F 83% 30.14 in 10.0 mi South 11.5 mph 18.4 mph N/A   Overcast
10:35 AM 68.0 °F 60.8 °F 78% 30.15 in 10.0 mi South 11.5 mph - N/A   Overcast
10:55 AM 69.8 °F 62.6 °F 78% 30.16 in 10.0 mi South 13.8 mph 18.4 mph N/A   Mostly Cloudy
11:15 AM 69.8 °F 62.6 °F 78% 30.15 in 10.0 mi South 13.8 mph 19.6 mph N/A   Overcast
11:35 AM 69.8 °F 62.6 °F 78% 30.15 in 10.0 mi South 13.8 mph - N/A   Scattered Clouds
11:55 AM 69.8 °F 62.6 °F 78% 30.15 in 10.0 mi South 16.1 mph - N/A   Partly Cloudy
12:15 PM 71.6 °F 62.6 °F 73% 30.15 in 10.0 mi South 15.0 mph 19.6 mph N/A   Mostly Cloudy
12:35 PM 71.6 °F 64.4 °F 78% 30.15 in 10.0 mi South 15.0 mph 23.0 mph N/A   Mostly Cloudy
12:55 PM 73.4 °F 64.4 °F 73% 30.15 in 10.0 mi South 15.0 mph 20.7 mph N/A   Mostly Cloudy
1:15 PM 73.4 °F 64.4 °F 73% 30.14 in 10.0 mi South 13.8 mph 24.2 mph N/A   Mostly Cloudy
1:35 PM 73.4 °F 64.4 °F 73% 30.14 in 10.0 mi South 12.7 mph 18.4 mph N/A   Scattered Clouds
1:55 PM 73.4 °F 64.4 °F 73% 30.13 in 10.0 mi South 18.4 mph 23.0 mph N/A   Scattered Clouds
2:15 PM 73.4 °F 60.8 °F 65% 30.12 in 10.0 mi South 11.5 mph 18.4 mph N/A   Mostly Cloudy
2:35 PM 75.2 °F 62.6 °F 65% 30.12 in 10.0 mi SSW 12.7 mph 19.6 mph N/A   Mostly Cloudy
2:55 PM 75.2 °F 62.6 °F 65% 30.10 in 10.0 mi SSE 12.7 mph 20.7 mph N/A   Mostly Cloudy
3:15 PM 75.2 °F 62.6 °F 65% 30.10 in 10.0 mi South 11.5 mph - N/A   Mostly Cloudy
3:35 PM 73.4 °F 62.6 °F 69% 30.11 in 10.0 mi SSE 13.8 mph 19.6 mph N/A   Overcast
3:55 PM 73.4 °F 60.8 °F 65% 30.11 in 10.0 mi South 12.7 mph 19.6 mph N/A   Mostly Cloudy
4:15 PM 71.6 °F 62.6 °F 73% 30.12 in 10.0 mi South 11.5 mph - N/A   Overcast
4:35 PM 71.6 °F 62.6 °F 73% 30.11 in 10.0 mi SSE 13.8 mph - N/A   Mostly Cloudy
4:55 PM 69.8 °F 60.8 °F 73% 30.11 in 10.0 mi South 10.4 mph - N/A   Mostly Cloudy
5:15 PM 69.8 °F 62.6 °F 78% 30.09 in 10.0 mi SE 9.2 mph - N/A   Scattered Clouds
5:35 PM 69.8 °F 62.6 °F 78% 30.11 in 10.0 mi SSE 11.5 mph - N/A   Mostly Cloudy
5:55 PM 69.8 °F 62.6 °F 78% 30.11 in 10.0 mi SSE 12.7 mph - N/A   Scattered Clouds
6:15 PM 69.8 °F 62.6 °F 78% 30.11 in 10.0 mi SSE 10.4 mph - N/A   Clear
6:35 PM 68.0 °F 62.6 °F 83% 30.10 in 10.0 mi SE 8.1 mph - N/A   Clear
6:55 PM 68.0 °F 62.6 °F 83% 30.11 in 10.0 mi SSE 9.2 mph - N/A   Clear
7:35 PM 66.2 °F 60.8 °F 83% 30.11 in 10.0 mi SSE 8.1 mph - N/A   Partly Cloudy
7:55 PM 66.2 °F 60.8 °F 83% 30.12 in 10.0 mi South 8.1 mph - N/A   Partly Cloudy
8:15 PM 66.2 °F 59.0 °F 78% 30.12 in 10.0 mi SSE 6.9 mph - N/A   Partly Cloudy
8:35 PM 66.2 °F 59.0 °F 78% 30.12 in 10.0 mi SSE 5.8 mph - N/A   Clear
8:55 PM 64.4 °F 57.2 °F 77% 30.13 in 10.0 mi SSE 5.8 mph - N/A   Clear
9:55 PM 64.4 °F 57.2 °F 77% 30.15 in 10.0 mi South 8.1 mph - N/A   Partly Cloudy
10:15 PM 64.4 °F 57.2 °F 77% 30.15 in 10.0 mi SSE 6.9 mph - N/A   Partly Cloudy
10:35 PM 64.4 °F 57.2 °F 77% 30.16 in 10.0 mi South 5.8 mph - N/A   Clear
10:55 PM 64.4 °F 57.2 °F 77% 30.16 in 10.0 mi South 8.1 mph - N/A   Partly Cloudy
11:15 PM 64.4 °F 55.4 °F 73% 30.16 in 10.0 mi South 8.1 mph - N/A   Clear
11:35 PM 64.4 °F 57.2 °F 77% 30.16 in 10.0 mi South 6.9 mph - N/A   Clear
11:55 PM 64.4 °F 55.4 °F 73% 30.16 in 10.0 mi South 6.9 mph - N/A   Clear